N617G MYAM-KOPF

Flight info

Callsign N617G
Flight time 0h 46m
Altitude 34000
Route REPEE CUUDA3
Aircraft C700/M-SBDGHM1RWXY/LB2

Departure

Time 2026-04-20 20:58
Airport Leonard M. Thompson International Airport (MYAM)

Arrival

Time 2026-04-20 21:44
Airport Miami-Opa Locka Executive Airport (KOPF)
Time Latitude Longitude Altitude Speed Heading
2026-04-20 20:39 26.51357 -77.08240 10 ft 0 kts
2026-04-20 20:53 26.51360 -77.08244 10 ft 2 kts 298°
2026-04-20 20:53 26.51331 -77.08290 10 ft 15 kts 233°
2026-04-20 20:54 26.51249 -77.08398 10 ft 9 kts 192°
2026-04-20 20:54 26.51196 -77.08419 10 ft 8 kts 202°
2026-04-20 20:54 26.51138 -77.08496 10 ft 21 kts 271°
2026-04-20 20:54 26.51136 -77.08678 10 ft 29 kts 269°
2026-04-20 20:55 26.51131 -77.08915 10 ft 32 kts 266°
2026-04-20 20:55 26.51123 -77.09119 10 ft 25 kts 269°
2026-04-20 20:55 26.51119 -77.09295 10 ft 20 kts 269°
2026-04-20 20:55 26.51115 -77.09436 10 ft 13 kts 262°
2026-04-20 20:56 26.51110 -77.09469 10 ft 2 kts 259°
2026-04-20 20:56 26.51071 -77.09478 10 ft 0 kts 176°
2026-04-20 20:57 26.51033 -77.09475 10 ft 16 kts 176°
2026-04-20 20:57 26.50990 -77.09438 11 ft 0 kts 89°
2026-04-20 20:57 26.50996 -77.09245 10 ft 74 kts 87°
2026-04-20 20:57 26.51021 -77.08295 152 ft 158 kts 86°
2026-04-20 20:58 26.50902 -77.07003 1125 ft 189 kts 95°
2026-04-20 20:58 26.50721 -77.05478 1664 ft 195 kts 95°
2026-04-20 20:58 26.50522 -77.03910 2280 ft 208 kts 96°
2026-04-20 20:58 26.50028 -77.02431 2878 ft 213 kts 126°
2026-04-20 20:59 26.48932 -77.01276 3657 ft 219 kts 139°
2026-04-20 20:59 26.47558 -77.00554 4398 ft 228 kts 173°
2026-04-20 20:59 26.45868 -77.00665 5028 ft 267 kts 188°
2026-04-20 20:59 26.43975 -77.00992 4978 ft 275 kts 192°
2026-04-20 21:00 26.42274 -77.01880 4962 ft 272 kts 222°
2026-04-20 21:00 26.41191 -77.03556 5230 ft 257 kts 246°
2026-04-20 21:00 26.40567 -77.05453 6092 ft 272 kts 261°
2026-04-20 21:00 26.40705 -77.07492 6927 ft 263 kts 285°
2026-04-20 21:01 26.41266 -77.09466 7779 ft 270 kts 289°
2026-04-20 21:01 26.41905 -77.11435 8638 ft 271 kts 290°
2026-04-20 21:01 26.42577 -77.13426 9523 ft 277 kts 290°
2026-04-20 21:01 26.43273 -77.15448 10377 ft 284 kts 290°
2026-04-20 21:02 26.44020 -77.17588 11222 ft 302 kts 290°
2026-04-20 21:02 26.44793 -77.19775 12075 ft 305 kts 291°
2026-04-20 21:02 26.45590 -77.22003 12958 ft 312 kts 290°
2026-04-20 21:02 26.46406 -77.24254 13853 ft 313 kts 290°
2026-04-20 21:03 26.47231 -77.26503 14664 ft 314 kts 291°
2026-04-20 21:03 26.48066 -77.28763 15483 ft 317 kts 291°
2026-04-20 21:03 26.48912 -77.31046 16336 ft 319 kts 291°
2026-04-20 21:03 26.49764 -77.33342 17206 ft 321 kts 291°
2026-04-20 21:04 26.50624 -77.35653 18107 ft 324 kts 291°
2026-04-20 21:04 26.51494 -77.37990 18934 ft 327 kts 291°
2026-04-20 21:04 26.52264 -77.40390 19738 ft 330 kts 285°
2026-04-20 21:04 26.52771 -77.42910 20416 ft 337 kts 278°
2026-04-20 21:05 26.52915 -77.45522 21017 ft 336 kts 271°
2026-04-20 21:05 26.52902 -77.48135 21631 ft 339 kts 270°
2026-04-20 21:05 26.52945 -77.50792 22263 ft 344 kts 274°
2026-04-20 21:05 26.53113 -77.53470 22908 ft 347 kts 275°
2026-04-20 21:06 26.53281 -77.56161 23566 ft 348 kts 274°
2026-04-20 21:06 26.53395 -77.58865 24135 ft 350 kts 273°
2026-04-20 21:06 26.53503 -77.61590 24699 ft 353 kts 274°
2026-04-20 21:06 26.53634 -77.64343 25271 ft 356 kts 274°
2026-04-20 21:07 26.53770 -77.67112 25859 ft 358 kts 274°
2026-04-20 21:07 26.53895 -77.69829 26442 ft 358 kts 273°
2026-04-20 21:07 26.54021 -77.72647 27059 ft 360 kts 273°
2026-04-20 21:07 26.54148 -77.75427 27676 ft 366 kts 273°
2026-04-20 21:08 26.54278 -77.78278 28315 ft 368 kts 273°
2026-04-20 21:08 26.54408 -77.81138 28968 ft 369 kts 273°
2026-04-20 21:08 26.54536 -77.84004 29637 ft 372 kts 273°
2026-04-20 21:08 26.54666 -77.86906 30296 ft 377 kts 273°
2026-04-20 21:09 26.54797 -77.89839 30886 ft 377 kts 273°
2026-04-20 21:09 26.54927 -77.92752 31482 ft 374 kts 273°
2026-04-20 21:09 26.55055 -77.95647 32089 ft 375 kts 273°
2026-04-20 21:09 26.55184 -77.98566 32706 ft 377 kts 273°
2026-04-20 21:10 26.55312 -78.01495 33346 ft 378 kts 274°
2026-04-20 21:10 26.55439 -78.04415 33997 ft 375 kts 274°
2026-04-20 21:10 26.55569 -78.07389 34096 ft 392 kts 274°
2026-04-20 21:10 26.55704 -78.10492 34108 ft 409 kts 274°
2026-04-20 21:11 26.55978 -78.16930 34112 ft 415 kts 274°
2026-04-20 21:11 26.56250 -78.23342 34110 ft 412 kts 274°
2026-04-20 21:12 26.56520 -78.29763 34108 ft 415 kts 274°
2026-04-20 21:12 26.56787 -78.36217 34115 ft 416 kts 274°
2026-04-20 21:13 26.57014 -78.42553 34115 ft 401 kts 271°
2026-04-20 21:13 26.56720 -78.48790 34116 ft 404 kts 269°
2026-04-20 21:14 26.56418 -78.55085 34126 ft 406 kts 269°
2026-04-20 21:14 26.56093 -78.61339 34121 ft 401 kts 269°
2026-04-20 21:15 26.55778 -78.67593 34128 ft 406 kts 269°
2026-04-20 21:15 26.55451 -78.73877 34123 ft 404 kts 268°
2026-04-20 21:16 26.55129 -78.80112 34101 ft 403 kts 268°
2026-04-20 21:16 26.54799 -78.86392 34103 ft 407 kts 268°
2026-04-20 21:17 26.54466 -78.92678 34105 ft 405 kts 268°
2026-04-20 21:17 26.54135 -78.98904 34113 ft 403 kts 268°
2026-04-20 21:18 26.54094 -79.05157 34105 ft 401 kts 272°
2026-04-20 21:18 26.54217 -79.11401 34116 ft 405 kts 272°
2026-04-20 21:19 26.54354 -79.17662 34099 ft 400 kts 272°
2026-04-20 21:20 26.54547 -79.27046 34108 ft 405 kts 272°
2026-04-20 21:20 26.54674 -79.33306 34107 ft 401 kts 272°
2026-04-20 21:21 26.54797 -79.39526 34107 ft 402 kts 272°
2026-04-20 21:21 26.54918 -79.45808 33722 ft 403 kts 272°
2026-04-20 21:21 26.54976 -79.48896 33403 ft 393 kts 272°
2026-04-20 21:22 26.55033 -79.51937 32957 ft 395 kts 272°
2026-04-20 21:22 26.55008 -79.55032 32322 ft 402 kts 268°
2026-04-20 21:22 26.54686 -79.58146 31712 ft 405 kts 262°
2026-04-20 21:22 26.54069 -79.61228 31112 ft 409 kts 257°
2026-04-20 21:23 26.53154 -79.64252 30451 ft 415 kts 251°
2026-04-20 21:23 26.51930 -79.67198 29675 ft 420 kts 245°
2026-04-20 21:23 26.50450 -79.69998 28872 ft 417 kts 242°
2026-04-20 21:23 26.48947 -79.72745 28076 ft 412 kts 242°
2026-04-20 21:24 26.47474 -79.75474 27324 ft 409 kts 243°
2026-04-20 21:24 26.46006 -79.78188 26586 ft 407 kts 242°
2026-04-20 21:24 26.44537 -79.80886 25870 ft 406 kts 242°
2026-04-20 21:24 26.43067 -79.83580 25175 ft 406 kts 242°
2026-04-20 21:25 26.41607 -79.86260 24493 ft 402 kts 242°
2026-04-20 21:25 26.40107 -79.88870 23815 ft 399 kts 238°
2026-04-20 21:25 26.38316 -79.91244 23046 ft 401 kts 230°
2026-04-20 21:25 26.36251 -79.93332 22274 ft 402 kts 223°
2026-04-20 21:26 26.33947 -79.95092 21520 ft 401 kts 216°
2026-04-20 21:26 26.31533 -79.96626 20786 ft 395 kts 214°
2026-04-20 21:26 26.29199 -79.98122 20077 ft 389 kts 215°
2026-04-20 21:26 26.26842 -79.99644 19362 ft 384 kts 215°
2026-04-20 21:27 26.24571 -80.01105 18688 ft 380 kts 215°
2026-04-20 21:27 26.22337 -80.02625 17949 ft 373 kts 219°
2026-04-20 21:27 26.20355 -80.04458 17170 ft 370 kts 227°
2026-04-20 21:27 26.18644 -80.06584 16418 ft 368 kts 235°
2026-04-20 21:28 26.17244 -80.08950 15690 ft 365 kts 243°
2026-04-20 21:28 26.16185 -80.11474 14972 ft 343 kts 250°
2026-04-20 21:28 26.15474 -80.13848 14263 ft 322 kts 255°
2026-04-20 21:28 26.15066 -80.16268 13616 ft 314 kts 265°
2026-04-20 21:29 26.15031 -80.18665 12974 ft 305 kts 271°
2026-04-20 21:29 26.15046 -80.20250 12558 ft 301 kts 271°
2026-04-20 21:29 26.15054 -80.22536 11936 ft 297 kts 270°
2026-04-20 21:29 26.15058 -80.24816 11329 ft 292 kts 270°
2026-04-20 21:30 26.15068 -80.27050 10731 ft 286 kts 271°
2026-04-20 21:30 26.15079 -80.29262 10141 ft 286 kts 271°
2026-04-20 21:30 26.15088 -80.31474 9517 ft 285 kts 271°
2026-04-20 21:30 26.15096 -80.33673 8882 ft 284 kts 271°
2026-04-20 21:31 26.15095 -80.35864 8269 ft 282 kts 271°
2026-04-20 21:31 26.15078 -80.38042 7657 ft 281 kts 272°
2026-04-20 21:31 26.14867 -80.40205 7048 ft 282 kts 260°
2026-04-20 21:31 26.14378 -80.42318 6463 ft 282 kts 257°
2026-04-20 21:32 26.13809 -80.44412 5838 ft 283 kts 255°
2026-04-20 21:32 26.13228 -80.46503 5229 ft 283 kts 255°
2026-04-20 21:32 26.12650 -80.48598 4621 ft 283 kts 256°
2026-04-20 21:32 26.12064 -80.50694 4048 ft 284 kts 256°
2026-04-20 21:33 26.11489 -80.52727 4003 ft 270 kts 256°
2026-04-20 21:33 26.10721 -80.54664 3997 ft 280 kts 242°
2026-04-20 21:33 26.09634 -80.56490 3993 ft 286 kts 232°
2026-04-20 21:33 26.08279 -80.58099 3998 ft 285 kts 226°
2026-04-20 21:34 26.06764 -80.59517 3986 ft 287 kts 209°
2026-04-20 21:34 26.04926 -80.60340 3989 ft 281 kts 197°
2026-04-20 21:34 26.03125 -80.60950 3982 ft 260 kts 195°
2026-04-20 21:34 26.01449 -80.61484 3985 ft 240 kts 191°
2026-04-20 21:35 25.99844 -80.61610 3989 ft 228 kts 175°
2026-04-20 21:35 25.98236 -80.61502 3803 ft 235 kts 173°
2026-04-20 21:35 25.96613 -80.61381 3510 ft 231 kts 173°
2026-04-20 21:35 25.95022 -80.61278 3219 ft 228 kts 174°
2026-04-20 21:36 25.93515 -80.60894 2993 ft 217 kts 148°
2026-04-20 21:36 25.92278 -80.60083 3006 ft 197 kts 143°
2026-04-20 21:36 25.91160 -80.59325 2982 ft 182 kts 143°
2026-04-20 21:36 25.90348 -80.58375 2972 ft 164 kts 104°
2026-04-20 21:37 25.90050 -80.57168 3003 ft 163 kts 96°
2026-04-20 21:37 25.89998 -80.55927 3004 ft 162 kts 83°
2026-04-20 21:37 25.90026 -80.54681 3007 ft 161 kts 82°
2026-04-20 21:37 25.90072 -80.53459 3006 ft 160 kts 79°
2026-04-20 21:38 25.90144 -80.52203 3010 ft 165 kts 81°
2026-04-20 21:38 25.90196 -80.50928 2999 ft 164 kts 81°
2026-04-20 21:38 25.90263 -80.49663 2876 ft 166 kts 81°
2026-04-20 21:38 25.90327 -80.48368 2494 ft 164 kts 81°
2026-04-20 21:39 25.90372 -80.47229 2078 ft 139 kts 79°
2026-04-20 21:39 25.90427 -80.46226 1816 ft 123 kts 79°
2026-04-20 21:39 25.90473 -80.45275 1714 ft 130 kts 80°
2026-04-20 21:39 25.90522 -80.44274 1708 ft 127 kts 81°
2026-04-20 21:40 25.90568 -80.43287 1690 ft 129 kts 79°
2026-04-20 21:40 25.90618 -80.42278 1662 ft 135 kts 78°
2026-04-20 21:40 25.90668 -80.41262 1639 ft 129 kts 78°
2026-04-20 21:40 25.90719 -80.40241 1603 ft 133 kts 80°
2026-04-20 21:41 25.90766 -80.39196 1613 ft 137 kts 82°
2026-04-20 21:41 25.90812 -80.38174 1600 ft 131 kts 81°
2026-04-20 21:41 25.90867 -80.37125 1448 ft 138 kts 82°
2026-04-20 21:41 25.90915 -80.36087 1279 ft 130 kts 80°
2026-04-20 21:42 25.90965 -80.35080 1110 ft 132 kts 81°
2026-04-20 21:42 25.90976 -80.34053 960 ft 134 kts 86°
2026-04-20 21:42 25.90932 -80.33015 787 ft 132 kts 84°
2026-04-20 21:42 25.91000 -80.32042 619 ft 118 kts 78°
2026-04-20 21:43 25.91106 -80.31154 391 ft 117 kts 84°
2026-04-20 21:43 25.91162 -80.30300 383 ft 108 kts 80°
2026-04-20 21:43 25.91218 -80.29465 197 ft 111 kts 82°
2026-04-20 21:43 25.91280 -80.28615 39 ft 111 kts 84°
2026-04-20 21:44 25.91322 -80.27815 9 ft 94 kts 91°
2026-04-20 21:44 25.91341 -80.27415 17 ft 30 kts 90°
2026-04-20 21:44 25.91300 -80.27312 17 ft 13 kts 176°
2026-04-20 21:44 25.91247 -80.27338 17 ft 0 kts 211°
2026-04-20 21:46 25.91245 -80.27339 17 ft 3 kts 211°
2026-04-20 21:46 25.91195 -80.27373 17 ft 12 kts 212°
2026-04-20 21:46 25.91147 -80.27359 16 ft 10 kts 97°
2026-04-20 21:47 25.91153 -80.27215 18 ft 27 kts 88°
2026-04-20 21:47 25.91163 -80.27007 15 ft 28 kts 88°
2026-04-20 21:47 25.91173 -80.26818 16 ft 13 kts 85°
2026-04-20 21:47 25.91126 -80.26753 16 ft 15 kts 175°
2026-04-20 21:48 25.91081 -80.26657 13 ft 14 kts 87°
2026-04-20 21:48 25.91061 -80.26572 13 ft 7 kts 189°
2026-04-20 21:48 25.91029 -80.26609 13 ft 0 kts 229°